GW1821 Weather Reports


time (UTC)temp
F
wind
direction
speed
knots
gust
knots
rain 1hr
in
rain 24hr
in
rain mn
in
humidity
%
barometer
mb
20230128005635 15 287 2.6 7.0 0.00 0.00 0.00 69 1009.8
20230128005135 15 292 3.5 9.6 0.00 0.00 0.00 69 1009.6
20230128004635 15 280 4.3 9.6 0.00 0.00 0.00 69 1009.5
20230128004135 15 269 3.5 9.6 0.00 0.00 0.00 69 1009.4
20230128003633 15 267 4.3 9.6 0.00 0.00 0.00 69 1009.4
20230128003135 15 299 2.6 9.6 0.00 0.00 0.00 69 1009.3
20230128002613 15 273 2.6 9.6 0.00 0.00 0.00 69 1009.2
20230128002114 15 286 2.6 9.6 0.00 0.00 0.00 69 1009.0
20230128001606 15 239 2.6 6.1 0.00 0.00 0.00 69 1009.0
20230128001105 15 305 2.6 7.0 0.00 0.00 0.00 68 1008.9
20230128000607 16 296 3.5 9.6 0.00 0.00 0.00 68 1008.7
20230128000057 16 156 3.5 9.6 0.00 0.00 0.00 68 1008.6
20230127235558 16 298 3.5 10.4 0.00 0.00 0.00 68 1008.4
20230127235054 16 282 3.5 10.4 0.00 0.00 0.00 68 1008.2
20230127234821 16 281 4.3 12.2 0.00 0.00 0.00 68 1008.1
20230127234047 16 306 4.3 12.2 0.00 0.00 0.00 68 1008.0
20230127233814 16 300 3.5 10.4 0.00 0.00 0.00 68 1007.8
20230127233308 17 287 2.6 12.2 0.00 0.00 0.00 68 1007.4
20230127232532 17 281 2.6 12.2 0.00 0.00 0.00 67 1007.2
20230127232258 17 317 4.3 12.2 0.00 0.00 0.00 67 1007.1
20230127231528 17 290 4.3 12.2 0.00 0.00 0.00 67 1006.9
20230127231029 18 283 3.5 12.2 0.00 0.00 0.00 68 1006.8
20230127230525 18 302 3.5 10.4 0.00 0.00 0.00 68 1006.6
20230127230019 19 256 3.5 8.7 0.00 0.00 0.00 67 1006.4
20230127225509 19 283 3.5 8.7 0.00 0.00 0.00 66 1006.4
20230127225011 19 257 3.5 11.3 0.00 0.00 0.00 66 1006.2
20230127224509 19 240 3.5 11.3 0.00 0.00 0.00 65 1006.0
20230127224008 19 279 3.5 8.7 0.00 0.00 0.00 65 1005.9
20230127223503 19 310 3.5 8.7 0.00 0.00 0.00 65 1005.8
20230127223004 19 280 3.5 10.4 0.00 0.00 0.00 65 1005.7
20230127222501 20 305 4.3 10.4 0.00 0.00 0.00 64 1005.6
20230127222229 20 286 4.3 9.6 0.00 0.00 0.00 64 1005.5
20230127221456 20 235 4.3 10.4 0.00 0.00 0.00 64 1005.4
20230127220957 20 246 4.3 10.4 0.00 0.00 0.00 65 1005.2
20230127220457 20 306 4.3 9.6 0.00 0.00 0.00 64 1005.1
20230127215958 20 307 4.3 11.3 0.00 0.00 0.00 64 1005.0
20230127215724 21 285 5.2 11.3 0.00 0.00 0.00 64 1005.0
20230127214954 21 300 6.1 12.2 0.00 0.00 0.00 63 1004.7
20230127214454 21 339 5.2 12.2 0.00 0.00 0.00 63 1004.6
20230127214225 21 298 5.2 11.3 0.00 0.00 0.00 65 1004.5
20230127213716 21 316 4.3 9.6 0.00 0.00 0.00 65 1004.5
20230127213619 21 314 5.2 11.3 0.00 0.00 0.00 65 1004.3
20230127212436 21 331 4.3 13.9 0.00 0.00 0.00 65 1004.3
20230127211936 21 290 4.3 13.9 0.00 0.00 0.00 64 1004.2
20230127211435 21 313 5.2 12.2 0.00 0.00 0.00 65 1004.1
20230127210932 21 298 5.2 13.9 0.00 0.00 0.00 64 1004.1
20230127210431 22 341 5.2 13.9 0.00 0.00 0.00 64 1004.0
20230127205930 22 338 6.1 14.8 0.00 0.00 0.00 64 1003.9
20230127205431 22 275 6.1 14.8 0.00 0.00 0.00 64 1003.8
20230127204925 23 323 4.3 11.3 0.00 0.00 0.00 65 1003.5
20230127204419 22 290 5.2 13.0 0.00 0.00 0.00 66 1003.5
20230127203922 22 330 6.1 13.9 0.00 0.00 0.00 65 1003.4
20230127203419 23 324 5.2 13.9 0.00 0.00 0.00 66 1003.2
20230127202919 22 337 6.1 12.2 0.00 0.00 0.00 66 1003.3
20230127202422 22 329 7.0 13.9 0.00 0.00 0.00 66 1003.2
20230127201920 23 299 6.1 14.8 0.00 0.00 0.00 66 1003.2
20230127201420 23 277 6.1 14.8 0.00 0.00 0.00 66 1003.0
20230127200917 23 252 7.0 13.9 0.00 0.00 0.00 68 1003.0
20230127200417 23 285 6.1 13.9 0.00 0.00 0.00 68 1003.0
20230127195915 23 265 6.1 13.9 0.00 0.00 0.00 69 1002.7
20230127195419 23 257 5.2 13.9 0.00 0.00 0.00 68 1002.6
20230127195415 23 306 7.0 13.9 0.00 0.00 0.00 68 1002.6
20230127194413 23 277 5.2 14.8 0.00 0.00 0.00 70 1002.5
20230127193912 23 270 6.1 14.8 0.00 0.00 0.00 70 1002.5
20230127193410 23 291 6.1 15.6 0.00 0.00 0.00 70 1002.4
20230127192906 22 273 7.0 15.6 0.00 0.00 0.00 70 1002.3
20230127192404 22 263 7.0 15.6 0.00 0.00 0.00 70 1002.2
20230127192134 22 298 7.0 15.6 0.00 0.00 0.00 70 1002.1
20230127191400 22 272 7.0 13.9 0.00 0.00 0.00 71 1002.0
20230127191131 23 310 7.0 16.5 0.00 0.00 0.00 70 1001.9
20230127190359 23 298 7.0 16.5 0.00 0.00 0.00 71 1002.0
20230127185859 23 316 7.0 15.6 0.00 0.00 0.00 71 1001.9
20230127185627 23 248 6.1 13.0 0.00 0.00 0.00 71 1001.7
20230127184853 23 267 6.1 14.8 0.00 0.00 0.00 72 1001.6
20230127184352 23 278 7.0 14.8 0.00 0.00 0.00 72 1001.6
20230127183851 23 292 7.0 15.6 0.00 0.00 0.00 72 1001.5
20230127183352 23 267 7.0 15.6 0.00 0.00 0.00 72 1001.4
20230127182846 23 279 6.1 15.6 0.00 0.00 0.00 72 1001.4
20230127182343 23 301 5.2 13.9 0.00 0.00 0.00 73 1001.3
20230127181843 23 267 5.2 13.9 0.00 0.00 0.00 73 1001.3
20230127181344 23 269 5.2 13.9 0.00 0.00 0.00 73 1001.3
20230127180843 23 285 6.1 13.9 0.00 0.00 0.00 73 1001.4
20230127180340 23 305 7.0 13.9 0.00 0.00 0.00 74 1001.2
20230127180110 23 323 7.0 14.8 0.00 0.00 0.00 73 1001.0
20230127175338 23 279 6.1 14.8 0.00 0.00 0.00 73 1000.7
20230127175107 23 287 7.0 18.2 0.00 0.00 0.00 73 1000.7
20230127174333 23 319 7.0 18.2 0.00 0.00 0.00 74 1000.6
20230127173832 23 306 6.1 17.4 0.00 0.00 0.00 75 1000.4
20230127173325 23 292 6.1 16.5 0.00 0.00 0.00 75 1000.4
20230127172825 23 288 6.1 14.8 0.00 0.00 0.00 76 1000.5
20230127172559 23 293 7.0 19.1 0.00 0.00 0.00 76 1000.3
20230127172058 24 275 6.1 19.1 0.00 0.00 0.00 77 1000.4
20230127171326 24 275 6.1 14.8 0.00 0.00 0.00 78 1000.2
20230127170826 24 209 7.0 13.9 0.00 0.00 0.00 78 1000.2
20230127170327 24 273 6.1 13.9 0.00 0.00 0.00 78 1000.2
20230127165825 24 292 5.2 12.2 0.00 0.00 0.00 79 1000.1
20230127165553 24 284 5.2 10.4 0.00 0.00 0.00 79 1000.0
20230127164822 24 300 6.1 13.0 0.00 0.00 0.00 79 999.8
20230127164320 24 259 7.0 13.0 0.00 0.00 0.00 79 999.8
20230127163817 24 306 7.0 13.0 0.00 0.00 0.00 79 999.7
20230127163318 24 326 7.0 13.9 0.00 0.00 0.00 79 999.6
20230127162816 24 322 7.0 13.9 0.00 0.00 0.00 80 999.4
20230127162316 24 271 6.1 13.9 0.00 0.00 0.00 80 999.2
20230127162044 24 259 6.1 15.6 0.00 0.00 0.00 80 999.0
20230127161310 25 298 7.0 15.6 0.00 0.00 0.00 81 998.7
20230127160808 25 290 7.0 13.9 0.00 0.00 0.00 80 998.7
20230127160306 25 250 6.1 13.9 0.00 0.00 0.00 80 998.7
20230127155802 26 306 6.1 13.9 0.00 0.00 0.00 80 998.5
20230127155534 26 304 6.1 14.8 0.00 0.00 0.00 80 998.3
20230127154800 26 290 6.1 14.8 0.00 0.00 0.00 80 998.1
20230127154257 27 302 5.2 13.0 0.00 0.00 0.00 81 997.9
20230127153755 27 311 4.3 10.4 0.00 0.00 0.00 81 997.7
20230127153253 27 329 4.3 11.3 0.00 0.00 0.00 81 997.5
20230127153023 27 292 5.2 13.9 0.00 0.00 0.00 81 997.5
20230127152517 27 300 6.1 13.9 0.00 0.00 0.00 81 997.4
20230127151745 27 306 7.0 20.9 0.00 0.00 0.00 80 997.2
20230127151243 27 304 7.8 20.9 0.00 0.00 0.00 80 997.0
20230127150744 28 288 7.0 16.5 0.00 0.00 0.00 81 996.9
20230127150247 29 303 5.2 13.9 0.00 0.00 0.00 82 996.5
20230127145741 29 305 6.1 12.2 0.00 0.00 0.00 81 996.3
20230127145239 29 306 6.1 13.0 0.00 0.00 0.00 81 996.1
20230127144739 30 288 5.2 14.8 0.00 0.00 0.00 82 995.9
20230127144240 30 313 5.2 14.8 0.00 0.00 0.00 85 995.6
20230127143737 31 305 5.2 15.6 0.00 0.00 0.00 85 995.3
20230127143731 30 264 5.2 12.2 0.00 0.00 0.00 85 995.5
20230127142729 31 311 5.2 15.6 0.00 0.00 0.00 85 995.2
20230127142228 31 289 4.3 11.3 0.00 0.00 0.00 86 995.1
20230127141728 32 246 5.2 13.9 0.00 0.00 0.00 86 994.9
20230127141229 33 286 5.2 13.9 0.00 0.00 0.00 86 994.8
20230127140957 33 284 5.2 12.2 0.00 0.00 0.00 88 994.5
20230127140219 33 291 4.3 10.4 0.00 0.00 0.00 89 994.2
20230127135719 33 273 4.3 9.6 0.00 0.00 0.00 90 994.0
20230127135221 33 286 4.3 9.6 0.00 0.00 0.00 90 993.9
20230127134717 33 299 3.5 10.4 0.00 0.00 0.00 91 993.7
20230127134213 33 270 3.5 10.4 0.00 0.00 0.00 92 993.5
20230127133712 32 263 2.6 8.7 0.00 0.00 0.00 93 993.4
20230127133213 32 291 2.6 7.0 0.00 0.00 0.00 93 993.3
20230127132709 31 309 2.6 7.8 0.00 0.00 0.00 93 993.3
20230127132208 31 268 1.7 7.8 0.00 0.00 0.00 93 993.2
20230127131937 31 265 0.9 5.2 0.00 0.00 0.00 93 993.1
20230127131133 30 232 0.9 3.5 0.00 0.00 0.00 93 993.0
20230127130634 30 232 1.7 4.3 0.00 0.00 0.00 93 992.9
20230127130134 30 232 1.7 4.3 0.00 0.00 0.00 93 992.9
20230127125616 30 215 0.9 3.5 0.00 0.00 0.00 92 992.9
20230127125114 30 201 0.9 2.6 0.00 0.00 0.00 92 992.7
20230127124617 29 194 0.9 3.5 0.00 0.00 0.00 92 992.6
20230127124109 29 194 1.7 3.5 0.00 0.00 0.00 92 992.5
20230127123559 29 211 1.7 4.3 0.00 0.00 0.00 92 992.5
20230127123100 29 211 1.7 4.3 0.00 0.00 0.00 92 992.4
20230127122600 29 173 1.7 4.3 0.00 0.00 0.00 92 992.3
20230127122058 29 184 1.7 6.1 0.00 0.00 0.00 92 992.3
20230127121559 29 192 1.7 6.1 0.00 0.00 0.00 92 992.1
20230127121325 29 198 2.6 5.2 0.00 0.00 0.00 92 992.1
20230127120825 28 232 2.6 5.2 0.00 0.00 0.00 92 992.1
20230127120058 28 160 1.7 4.3 0.00 0.00 0.00 92 992.0
20230127120048 28 239 1.7 5.2 0.00 0.00 0.00 92 992.1
20230127115135 28 192 2.6 7.0 0.00 0.00 0.00 92 992.0
20230127114023 28 202 2.6 6.1 0.00 0.00 0.00 92 992.0
20230127113749 28 161 2.6 7.8 0.00 0.00 0.00 92 992.0
20230127113016 28 150 2.6 7.8 0.00 0.00 0.00 92 992.0
20230127112516 27 185 2.6 10.4 0.00 0.00 0.00 92 992.0
20230127112014 27 204 3.5 10.4 0.00 0.00 0.00 92 992.1
20230127111516 27 180 4.3 11.3 0.00 0.00 0.00 92 992.1
20230127111014 27 175 4.3 11.3 0.00 0.00 0.00 91 992.3
20230127110741 27 144 4.3 9.6 0.00 0.00 0.00 91 992.3
20230127110011 27 161 3.5 8.7 0.00 0.00 0.00 91 992.4
20230127105512 26 196 3.5 8.7 0.00 0.00 0.00 91 992.5
20230127105010 26 157 3.5 8.7 0.00 0.00 0.00 91 992.5
20230127104509 26 154 3.5 10.4 0.00 0.00 0.00 91 992.6
20230127104236 26 144 3.5 10.4 0.00 0.00 0.00 91 992.6
20230127103504 26 190 3.5 7.0 0.00 0.00 0.00 91 992.7
20230127103002 26 153 3.5 8.7 0.00 0.00 0.00 91 992.7
20230127102501 26 182 2.6 8.7 0.00 0.00 0.00 91 992.7
20230127101956 25 179 2.6 6.1 0.00 0.00 0.00 91 992.8
20230127101459 25 173 3.5 8.7 0.00 0.00 0.00 91 992.8
20230127100957 25 185 4.3 8.7 0.00 0.00 0.00 91 992.9
20230127100727 25 144 3.5 7.8 0.00 0.00 0.00 91 992.8
20230127095959 25 174 3.5 7.8 0.00 0.00 0.00 91 992.9
20230127095452 25 187 4.3 7.8 0.00 0.00 0.00 91 993.1
20230127094953 25 188 3.5 7.8 0.00 0.00 0.00 91 993.2
20230127094454 24 145 3.5 8.7 0.00 0.00 0.00 90 993.2
20230127093952 24 153 4.3 12.2 0.00 0.00 0.00 90 993.4
20230127093518 24 116 4.3 11.3 0.00 0.00 0.00 90 993.5
20230127093448 24 169 4.3 12.2 0.00 0.00 0.00 90 993.4
20230127091945 23 111 4.3 9.6 0.00 0.00 0.00 90 993.7
20230127091445 23 181 3.5 10.4 0.00 0.00 0.00 91 993.8
20230127090944 23 146 4.3 12.2 0.00 0.00 0.00 90 994.0
20230127090716 22 147 4.3 12.2 0.00 0.00 0.00 90 994.1
20230127090209 22 156 4.3 10.4 0.00 0.00 0.00 90 994.2
20230127085438 22 113 4.3 10.4 0.00 0.00 0.00 90 994.3
20230127084940 22 160 4.3 9.6 0.00 0.00 0.00 90 994.5
20230127084434 22 160 3.5 9.6 0.00 0.00 0.00 90 994.6
20230127083935 21 133 3.5 9.6 0.00 0.00 0.00 90 994.7
20230127083429 21 142 3.5 8.7 0.00 0.00 0.00 90 994.8
20230127082931 21 155 3.5 7.8 0.00 0.00 0.00 90 995.1
20230127082926 21 134 2.6 7.0 0.00 0.00 0.00 90 995.0
20230127082155 20 128 4.3 7.8 0.00 0.00 0.00 90 995.2
20230127081420 20 148 3.5 7.8 0.00 0.00 0.00 90 995.3
20230127080918 20 151 2.6 7.8 0.00 0.00 0.00 90 995.4
20230127080413 20 153 2.6 7.8 0.00 0.00 0.00 89 995.6
20230127080137 19 151 2.6 7.8 0.00 0.00 0.00 89 995.7
20230127075629 19 159 3.5 10.4 0.00 0.00 0.00 89 995.8
20230127075123 19 130 3.5 10.4 0.00 0.00 0.00 89 995.9
20230127074350 19 97 3.5 10.4 0.00 0.00 0.00 89 996.3
20230127073846 18 166 3.5 13.0 0.00 0.00 0.00 89 996.4
20230127073347 18 153 4.3 13.0 0.00 0.00 0.00 89 996.5
20230127072833 18 99 4.3 9.6 0.00 0.00 0.00 89 996.6
20230127072330 18 180 4.3 9.6 0.00 0.00 0.00 89 996.8
20230127071826 18 137 3.5 9.6 0.00 0.00 0.00 89 996.9
20230127071327 17 169 3.5 11.3 0.00 0.00 0.00 89 997.1
20230127070827 17 98 3.5 11.3 0.00 0.00 0.00 89 997.1
20230127070326 17 152 3.5 9.6 0.00 0.00 0.00 89 997.1
20230127065828 17 143 3.5 12.2 0.00 0.00 0.00 88 997.2
20230127065557 17 149 4.3 12.2 0.00 0.00 0.00 88 997.4
20230127064821 17 105 4.3 10.4 0.00 0.00 0.00 88 997.6
20230127064318 17 113 4.3 10.4 0.00 0.00 0.00 88 997.7
20230127064046 16 116 4.3 10.4 0.00 0.00 0.00 88 997.9
20230127063307 16 104 5.2 10.4 0.00 0.00 0.00 88 998.0
20230127062806 16 152 5.2 13.0 0.00 0.00 0.00 88 998.3
20230127062306 16 131 5.2 13.0 0.00 0.00 0.00 87 998.4
20230127061805 16 187 4.3 13.0 0.00 0.00 0.00 87 998.6
20230127061536 16 128 4.3 13.0 0.00 0.00 0.00 87 998.7
20230127060802 16 163 3.5 13.0 0.00 0.00 0.00 87 999.1
20230127060302 16 173 4.3 8.7 0.00 0.00 0.00 87 999.2
20230127055803 16 113 3.5 8.7 0.00 0.00 0.00 86 999.3
20230127055306 16 158 4.3 8.7 0.00 0.00 0.00 86 999.5
20230127054759 16 84 4.3 11.3 0.00 0.00 0.00 86 999.6
20230127054253 16 140 4.3 12.2 0.00 0.00 0.00 86 999.7
20230127053754 15 146 4.3 12.2 0.00 0.00 0.00 85 1000.0
20230127053254 15 140 4.3 9.6 0.00 0.00 0.00 85 1000.2
20230127053020 15 117 3.5 9.6 0.00 0.00 0.00 85 1000.3
20230127052520 15 139 3.5 9.6 0.00 0.00 0.00 84 1000.5
20230127051747 15 121 3.5 9.6 0.00 0.00 0.00 84 1000.6
20230127051243 15 111 3.5 8.7 0.00 0.00 0.00 84 1000.8
20230127050740 15 149 3.5 8.7 0.00 0.00 0.00 84 1000.9
20230127050239 15 115 2.6 7.8 0.00 0.00 0.00 83 1001.0
20230127045743 15 122 2.6 6.1 0.00 0.00 0.00 83 1001.3
20230127045737 15 123 2.6 7.8 0.00 0.00 0.00 83 1001.2
20230127044732 15 109 2.6 7.8 0.00 0.00 0.00 84 1001.6
20230127044224 15 134 2.6 7.8 0.00 0.00 0.00 84 1001.8
20230127043721 15 121 2.6 7.0 0.00 0.00 0.00 83 1002.2
20230127043221 15 131 2.6 7.0 0.00 0.00 0.00 83 1002.4
20230127042721 15 140 2.6 7.0 0.00 0.00 0.00 83 1002.6
20230127042220 15 161 2.6 8.7 0.00 0.00 0.00 83 1002.8
20230127041721 15 148 2.6 8.7 0.00 0.00 0.00 83 1002.9
20230127041216 15 174 2.6 8.7 0.00 0.00 0.00 82 1003.1
20230127040712 15 132 3.5 8.7 0.00 0.00 0.00 83 1003.3
20230127040209 15 118 4.3 9.6 0.00 0.00 0.00 82 1003.3
20230127035708 15 117 5.2 9.6 0.00 0.00 0.00 82 1003.5
20230127035205 15 161 4.3 10.4 0.00 0.00 0.00 81 1003.8
20230127034704 15 155 3.5 10.4 0.00 0.00 0.00 81 1003.8
20230127034156 15 107 5.2 13.9 0.00 0.00 0.00 81 1004.1
20230127033654 15 176 6.1 13.9 0.00 0.00 0.00 82 1004.2
20230127033156 15 115 5.2 10.4 0.00 0.00 0.00 81 1004.4
20230127032635 15 137 5.2 12.2 0.00 0.00 0.00 82 1004.5
20230127032135 14 153 5.2 12.2 0.00 0.00 0.00 83 1004.7
20230127031635 14 139 4.3 10.4 0.00 0.00 0.00 83 1004.8
20230127031133 14 167 4.3 8.7 0.00 0.00 0.00 83 1004.9
20230127030634 14 179 4.3 10.4 0.00 0.00 0.00 83 1005.1
20230127030138 14 134 3.5 10.4 0.00 0.00 0.00 83 1005.1
20230127025606 14 133 3.5 8.7 0.00 0.00 0.00 83 1005.3
20230127025100 14 154 3.5 7.8 0.00 0.00 0.00 83 1005.4
20230127024557 14 126 2.6 9.6 0.00 0.00 0.00 83 1005.4
20230127024056 14 158 2.6 9.6 0.00 0.00 0.00 83 1005.4
20230127023825 14 143 3.5 9.6 0.00 0.00 0.00 83 1005.5
20230127023053 14 119 4.3 12.2 0.00 0.00 0.00 83 1005.7
20230127022552 14 120 4.3 12.2 0.00 0.00 0.00 83 1005.8
20230127022052 14 134 4.3 10.4 0.00 0.00 0.00 83 1006.1
20230127021553 14 220 4.3 10.4 0.00 0.00 0.00 82 1006.2
20230127021051 13 144 3.5 10.4 0.00 0.00 0.00 82 1006.3
20230127020551 13 152 4.3 10.4 0.00 0.00 0.00 82 1006.4
20230127020045 13 157 4.3 10.4 0.00 0.00 0.00 82 1006.6
20230127015039 13 123 2.6 10.4 0.00 0.00 0.00 81 1006.8
20230127014536 13 172 3.5 7.8 0.00 0.00 0.00 81 1006.9
20230127014034 13 161 4.3 11.3 0.00 0.00 0.00 81 1007.1
20230127013532 13 153 4.3 11.3 0.00 0.00 0.00 81 1007.3
20230127013032 13 109 4.3 12.2 0.00 0.00 0.00 81 1007.8
20230127012529 14 165 4.3 12.2 0.00 0.00 0.00 80 1007.9
20230127012028 14 190 3.5 8.7 0.00 0.00 0.00 80 1008.0
20230127011529 14 170 3.5 7.8 0.00 0.00 0.00 79 1008.2
20230127011021 14 180 3.5 7.8 0.00 0.00 0.00 79 1008.3
20230127010521 14 153 2.6 7.8 0.00 0.00 0.00 78 1008.6